TimeCST,TemperatureF,Dew PointF,Humidity,Sea Level PressureIn,VisibilityMPH,Wind Direction,Wind SpeedMPH,Gust SpeedMPH,PrecipitationIn,Events,Conditions,WindDirDegrees,DateUTC
12:53 AM,37.9,28.9,70,30.07,10.0,SW,3.5,-,N/A,,Clear,220,2013-01-19 06:53:00
1:53 AM,34.0,28.0,79,30.06,10.0,SSW,5.8,-,N/A,,Clear,210,2013-01-19 07:53:00
2:53 AM,35.1,28.0,76,30.05,10.0,SW,6.9,-,N/A,,Clear,220,2013-01-19 08:53:00
3:53 AM,30.0,26.1,85,30.06,10.0,West,8.1,-,N/A,,Clear,270,2013-01-19 09:53:00
4:53 AM,30.9,26.1,82,30.05,10.0,SW,5.8,-,N/A,,Clear,220,2013-01-19 10:53:00
5:53 AM,27.0,24.1,89,30.07,10.0,SW,5.8,-,N/A,,Clear,230,2013-01-19 11:53:00
6:53 AM,27.0,24.1,89,30.09,10.0,WSW,8.1,-,N/A,,Clear,240,2013-01-19 12:53:00
7:53 AM,26.1,23.0,88,30.10,10.0,WSW,4.6,-,N/A,,Clear,240,2013-01-19 13:53:00
8:53 AM,30.9,27.0,85,30.13,10.0,WSW,8.1,-,N/A,,Clear,240,2013-01-19 14:53:00
9:53 AM,39.0,27.0,62,30.16,10.0,West,4.6,-,N/A,,Clear,260,2013-01-19 15:53:00
10:53 AM,51.1,23.0,33,30.17,10.0,North,8.1,-,N/A,,Clear,350,2013-01-19 16:53:00
11:53 AM,57.0,19.0,23,30.15,10.0,NNE,6.9,-,N/A,,Clear,20,2013-01-19 17:53:00
12:53 PM,60.1,19.9,21,30.13,10.0,NNE,10.4,-,N/A,,Clear,20,2013-01-19 18:53:00
1:53 PM,62.1,19.9,20,30.12,10.0,North,9.2,-,N/A,,Clear,350,2013-01-19 19:53:00
2:53 PM,64.0,21.0,19,30.12,10.0,NNW,9.2,-,N/A,,Clear,340,2013-01-19 20:53:00
3:53 PM,64.0,19.9,18,30.14,10.0,North,11.5,19.6,N/A,,Clear,10,2013-01-19 21:53:00
4:53 PM,62.1,19.9,20,30.16,10.0,NNE,11.5,-,N/A,,Clear,20,2013-01-19 22:53:00
5:53 PM,52.0,21.9,31,30.19,10.0,NE,5.8,-,N/A,,Clear,40,2013-01-19 23:53:00
6:53 PM,46.9,21.9,37,30.22,10.0,NNE,4.6,-,N/A,,Clear,20,2013-01-20 00:53:00
7:53 PM,39.9,24.1,53,30.26,10.0,Calm,Calm,-,N/A,,Clear,0,2013-01-20 01:53:00
8:53 PM,35.1,25.0,67,30.27,10.0,Calm,Calm,-,N/A,,Clear,0,2013-01-20 02:53:00
9:53 PM,35.1,24.1,64,30.27,10.0,WSW,8.1,-,N/A,,Clear,240,2013-01-20 03:53:00
10:53 PM,33.8,23.0,65,30.24,10.0,West,4.6,-,N/A,,Clear,280,2013-01-20 04:53:00
11:53 PM,30.0,23.0,75,30.26,10.0,SW,5.8,-,N/A,,Clear,230,2013-01-20 05:53:00